owner,sensor,date,latitude,longitude,relative_humidity,qcFlag 
COMPS,ioos:station:USF.COMPS:C10:1,2015-04-01T00:05:00Z,27.1690,-82.9260,77.96,1111122 
COMPS,ioos:station:USF.COMPS:C10:1,2015-04-01T00:35:00Z,27.1690,-82.9260,79.07,1111122 
COMPS,ioos:station:USF.COMPS:C10:1,2015-04-01T01:05:00Z,27.1690,-82.9260,80.5,1111122 
COMPS,ioos:station:USF.COMPS:C10:1,2015-04-01T01:35:00Z,27.1690,-82.9260,81.41,1111122 
COMPS,ioos:station:USF.COMPS:C10:1,2015-04-01T02:05:00Z,27.1690,-82.9260,81.49,1111122 
COMPS,ioos:station:USF.COMPS:C10:1,2015-04-01T02:35:00Z,27.1690,-82.9260,81.91,1111122 
COMPS,ioos:station:USF.COMPS:C10:1,2015-04-01T03:05:00Z,27.1690,-82.9260,82.52,1111122 
COMPS,ioos:station:USF.COMPS:C10:1,2015-04-01T03:35:00Z,27.1690,-82.9260,82.44,1111122 
COMPS,ioos:station:USF.COMPS:C10:1,2015-04-01T04:05:00Z,27.1690,-82.9260,82.93,1111122 
COMPS,ioos:station:USF.COMPS:C10:1,2015-04-01T04:35:00Z,27.1690,-82.9260,83.05,1111122 
COMPS,ioos:station:USF.COMPS:C10:1,2015-04-01T06:05:00Z,27.1690,-82.9260,83.13,1111122 
COMPS,ioos:station:USF.COMPS:C10:1,2015-04-01T06:35:00Z,27.1690,-82.9260,82.89,1111122 
COMPS,ioos:station:USF.COMPS:C10:1,2015-04-01T08:05:00Z,27.1690,-82.9260,81.38,1111122 
COMPS,ioos:station:USF.COMPS:C10:1,2015-04-01T08:35:00Z,27.1690,-82.9260,81.39,1111122 
COMPS,ioos:station:USF.COMPS:C10:1,2015-04-01T09:05:00Z,27.1690,-82.9260,80.78,1111122 
COMPS,ioos:station:USF.COMPS:C10:1,2015-04-01T09:35:00Z,27.1690,-82.9260,81.58,1111122 
COMPS,ioos:station:USF.COMPS:C10:1,2015-04-01T10:05:00Z,27.1690,-82.9260,79.64,1111122 
COMPS,ioos:station:USF.COMPS:C10:1,2015-04-01T10:35:00Z,27.1690,-82.9260,79.89,1111122 
COMPS,ioos:station:USF.COMPS:C10:1,2015-04-01T11:05:00Z,27.1690,-82.9260,80.08,1111122 
COMPS,ioos:station:USF.COMPS:C10:1,2015-04-01T11:35:00Z,27.1690,-82.9260,79.46,1111122 
COMPS,ioos:station:USF.COMPS:C10:1,2015-04-01T12:05:00Z,27.1690,-82.9260,77.3,1111122 
COMPS,ioos:station:USF.COMPS:C10:1,2015-04-01T12:35:00Z,27.1690,-82.9260,76.15,1111122 
COMPS,ioos:station:USF.COMPS:C10:1,2015-04-01T13:05:00Z,27.1690,-82.9260,76.85,1111122 
COMPS,ioos:station:USF.COMPS:C10:1,2015-04-01T13:35:00Z,27.1690,-82.9260,76.89,1111122 
COMPS,ioos:station:USF.COMPS:C10:1,2015-04-01T14:05:00Z,27.1690,-82.9260,77.74,1111122 
COMPS,ioos:station:USF.COMPS:C10:1,2015-04-01T14:35:00Z,27.1690,-82.9260,77.4,1111122 
COMPS,ioos:station:USF.COMPS:C10:1,2015-04-01T15:05:00Z,27.1690,-82.9260,77.7,1111122 
COMPS,ioos:station:USF.COMPS:C10:1,2015-04-01T15:35:00Z,27.1690,-82.9260,78.24,1111122 
COMPS,ioos:station:USF.COMPS:C10:1,2015-04-01T16:05:00Z,27.1690,-82.9260,76.92,1111122 
COMPS,ioos:station:USF.COMPS:C10:1,2015-04-01T16:35:00Z,27.1690,-82.9260,76.45,1111122 
COMPS,ioos:station:USF.COMPS:C10:1,2015-04-01T17:05:00Z,27.1690,-82.9260,75.84,1111122 
COMPS,ioos:station:USF.COMPS:C10:1,2015-04-01T17:35:00Z,27.1690,-82.9260,75.4,1111122 
COMPS,ioos:station:USF.COMPS:C10:1,2015-04-01T18:05:00Z,27.1690,-82.9260,74.47,1111122 
COMPS,ioos:station:USF.COMPS:C10:1,2015-04-01T18:35:00Z,27.1690,-82.9260,72.83,1111122 
COMPS,ioos:station:USF.COMPS:C10:1,2015-04-01T19:05:00Z,27.1690,-82.9260,75.28,1111122 
COMPS,ioos:station:USF.COMPS:C10:1,2015-04-01T19:35:00Z,27.1690,-82.9260,76.31,1111122 
COMPS,ioos:station:USF.COMPS:C10:1,2015-04-01T20:05:00Z,27.1690,-82.9260,75.72,1111122 
COMPS,ioos:station:USF.COMPS:C10:1,2015-04-01T20:35:00Z,27.1690,-82.9260,74.88,1111122 
COMPS,ioos:station:USF.COMPS:C10:1,2015-04-01T21:05:00Z,27.1690,-82.9260,73.77,1111122 
COMPS,ioos:station:USF.COMPS:C10:1,2015-04-01T21:35:00Z,27.1690,-82.9260,75.52,1111122 
COMPS,ioos:station:USF.COMPS:C10:1,2015-04-01T22:05:00Z,27.1690,-82.9260,74.36,1111122 
COMPS,ioos:station:USF.COMPS:C10:1,2015-04-01T22:35:00Z,27.1690,-82.9260,76.31,1111122 
COMPS,ioos:station:USF.COMPS:C10:1,2015-04-01T23:05:00Z,27.1690,-82.9260,76.57,1111122 
COMPS,ioos:station:USF.COMPS:C10:1,2015-04-01T23:35:00Z,27.1690,-82.9260,78.36,1111122 
COMPS,ioos:station:USF.COMPS:C10:1,2015-04-02T00:05:00Z,27.1690,-82.9260,79.61,1111122 
COMPS,ioos:station:USF.COMPS:C10:1,2015-04-02T00:35:00Z,27.1690,-82.9260,80.8,1111122 
COMPS,ioos:station:USF.COMPS:C10:1,2015-04-02T01:05:00Z,27.1690,-82.9260,81.45,1111122 
COMPS,ioos:station:USF.COMPS:C10:1,2015-04-02T01:35:00Z,27.1690,-82.9260,81.81,1111122 
COMPS,ioos:station:USF.COMPS:C10:1,2015-04-02T02:05:00Z,27.1690,-82.9260,82.44,1111122 
COMPS,ioos:station:USF.COMPS:C10:1,2015-04-02T02:35:00Z,27.1690,-82.9260,83.78,1111122 
COMPS,ioos:station:USF.COMPS:C10:1,2015-04-02T03:05:00Z,27.1690,-82.9260,84.29,1111122 
COMPS,ioos:station:USF.COMPS:C10:1,2015-04-02T03:35:00Z,27.1690,-82.9260,84.62,1111122 
COMPS,ioos:station:USF.COMPS:C10:1,2015-04-02T04:05:00Z,27.1690,-82.9260,85.73,1111122 
COMPS,ioos:station:USF.COMPS:C10:1,2015-04-02T04:35:00Z,27.1690,-82.9260,84.54,1111122 
COMPS,ioos:station:USF.COMPS:C10:1,2015-04-02T05:05:00Z,27.1690,-82.9260,84.62,1111122 
COMPS,ioos:station:USF.COMPS:C10:1,2015-04-02T05:35:00Z,27.1690,-82.9260,85.89,1111122 
COMPS,ioos:station:USF.COMPS:C10:1,2015-04-02T06:05:00Z,27.1690,-82.9260,85.25,1111122 
COMPS,ioos:station:USF.COMPS:C10:1,2015-04-02T06:35:00Z,27.1690,-82.9260,85.33,1111122 
COMPS,ioos:station:USF.COMPS:C10:1,2015-04-02T07:05:00Z,27.1690,-82.9260,89.13,1111122 
COMPS,ioos:station:USF.COMPS:C10:1,2015-04-02T07:35:00Z,27.1690,-82.9260,88.63,1111122 
COMPS,ioos:station:USF.COMPS:C10:1,2015-04-02T08:05:00Z,27.1690,-82.9260,87.08,1111122 
COMPS,ioos:station:USF.COMPS:C10:1,2015-04-02T08:35:00Z,27.1690,-82.9260,87.33,1111122 
COMPS,ioos:station:USF.COMPS:C10:1,2015-04-02T09:05:00Z,27.1690,-82.9260,86.77,1111122 
COMPS,ioos:station:USF.COMPS:C10:1,2015-04-02T09:35:00Z,27.1690,-82.9260,83.82,1111122 
COMPS,ioos:station:USF.COMPS:C10:1,2015-04-02T10:05:00Z,27.1690,-82.9260,80.38,1111122 
COMPS,ioos:station:USF.COMPS:C10:1,2015-04-02T10:35:00Z,27.1690,-82.9260,84.05,1111122 
COMPS,ioos:station:USF.COMPS:C10:1,2015-04-02T11:05:00Z,27.1690,-82.9260,85.64,1111122 
COMPS,ioos:station:USF.COMPS:C10:1,2015-04-02T11:35:00Z,27.1690,-82.9260,85.26,1111122 
COMPS,ioos:station:USF.COMPS:C10:1,2015-04-02T12:05:00Z,27.1690,-82.9260,83.49,1111122 
COMPS,ioos:station:USF.COMPS:C10:1,2015-04-02T12:35:00Z,27.1690,-82.9260,82.8,1111122 
COMPS,ioos:station:USF.COMPS:C10:1,2015-04-02T13:05:00Z,27.1690,-82.9260,83.56,1111122 
COMPS,ioos:station:USF.COMPS:C10:1,2015-04-02T13:35:00Z,27.1690,-82.9260,80.5,1111122 
COMPS,ioos:station:USF.COMPS:C10:1,2015-04-02T14:05:00Z,27.1690,-82.9260,81.71,1111122 
COMPS,ioos:station:USF.COMPS:C10:1,2015-04-02T14:35:00Z,27.1690,-82.9260,82.16,1111122 
COMPS,ioos:station:USF.COMPS:C10:1,2015-04-02T15:05:00Z,27.1690,-82.9260,82.92,1111122 
COMPS,ioos:station:USF.COMPS:C10:1,2015-04-02T15:35:00Z,27.1690,-82.9260,83.33,1111122 
COMPS,ioos:station:USF.COMPS:C10:1,2015-04-02T16:05:00Z,27.1690,-82.9260,82.92,1111122 
COMPS,ioos:station:USF.COMPS:C10:1,2015-04-02T16:35:00Z,27.1690,-82.9260,83.06,1111122 
COMPS,ioos:station:USF.COMPS:C10:1,2015-04-02T17:05:00Z,27.1690,-82.9260,81.72,1111122 
COMPS,ioos:station:USF.COMPS:C10:1,2015-04-02T17:35:00Z,27.1690,-82.9260,81.94,1111122 
COMPS,ioos:station:USF.COMPS:C10:1,2015-04-02T18:05:00Z,27.1690,-82.9260,80.71,1111122 
COMPS,ioos:station:USF.COMPS:C10:1,2015-04-02T18:35:00Z,27.1690,-82.9260,81.12,1111122 
COMPS,ioos:station:USF.COMPS:C10:1,2015-04-02T19:05:00Z,27.1690,-82.9260,78.87,1111122 
COMPS,ioos:station:USF.COMPS:C10:1,2015-04-02T19:35:00Z,27.1690,-82.9260,80.28,1111122 
COMPS,ioos:station:USF.COMPS:C10:1,2015-04-02T20:05:00Z,27.1690,-82.9260,81.77,1111122 
COMPS,ioos:station:USF.COMPS:C10:1,2015-04-02T20:35:00Z,27.1690,-82.9260,81.71,1111122 
COMPS,ioos:station:USF.COMPS:C10:1,2015-04-02T21:05:00Z,27.1690,-82.9260,81.95,1111122 
COMPS,ioos:station:USF.COMPS:C10:1,2015-04-02T21:35:00Z,27.1690,-82.9260,80.3,1111122 
COMPS,ioos:station:USF.COMPS:C10:1,2015-04-02T22:05:00Z,27.1690,-82.9260,80.22,1111122 
COMPS,ioos:station:USF.COMPS:C10:1,2015-04-02T22:35:00Z,27.1690,-82.9260,82.13,1111122 
COMPS,ioos:station:USF.COMPS:C10:1,2015-04-02T23:05:00Z,27.1690,-82.9260,83.69,1111122 
COMPS,ioos:station:USF.COMPS:C10:1,2015-04-02T23:35:00Z,27.1690,-82.9260,84.6,1111122 
COMPS,ioos:station:USF.COMPS:C10:1,2015-04-03T00:05:00Z,27.1690,-82.9260,87.03,1111122 
COMPS,ioos:station:USF.COMPS:C10:1,2015-04-03T00:35:00Z,27.1690,-82.9260,87.46,1111122 
COMPS,ioos:station:USF.COMPS:C10:1,2015-04-03T01:05:00Z,27.1690,-82.9260,88.32,1111122 
COMPS,ioos:station:USF.COMPS:C10:1,2015-04-03T01:35:00Z,27.1690,-82.9260,89.88,1111122 
COMPS,ioos:station:USF.COMPS:C10:1,2015-04-03T04:05:00Z,27.1690,-82.9260,92.41,1111122 
COMPS,ioos:station:USF.COMPS:C10:1,2015-04-03T04:35:00Z,27.1690,-82.9260,92.02,1111122 
COMPS,ioos:station:USF.COMPS:C10:1,2015-04-03T05:05:00Z,27.1690,-82.9260,92.21,1111122 
COMPS,ioos:station:USF.COMPS:C10:1,2015-04-03T05:35:00Z,27.1690,-82.9260,92.51,1111122 
COMPS,ioos:station:USF.COMPS:C10:1,2015-04-03T07:05:00Z,27.1690,-82.9260,93.43,1111122 
COMPS,ioos:station:USF.COMPS:C10:1,2015-04-03T07:35:00Z,27.1690,-82.9260,93.8,1111122 
COMPS,ioos:station:USF.COMPS:C10:1,2015-04-03T08:05:00Z,27.1690,-82.9260,94.03,1111122 
COMPS,ioos:station:USF.COMPS:C10:1,2015-04-03T08:35:00Z,27.1690,-82.9260,94.69,1111122 
COMPS,ioos:station:USF.COMPS:C10:1,2015-04-03T09:05:00Z,27.1690,-82.9260,94.69,1111122 
COMPS,ioos:station:USF.COMPS:C10:1,2015-04-03T09:35:00Z,27.1690,-82.9260,94.79,1111122 
COMPS,ioos:station:USF.COMPS:C10:1,2015-04-03T10:05:00Z,27.1690,-82.9260,94.94,1111122 
COMPS,ioos:station:USF.COMPS:C10:1,2015-04-03T10:35:00Z,27.1690,-82.9260,95.26,1111122 
COMPS,ioos:station:USF.COMPS:C10:1,2015-04-03T11:05:00Z,27.1690,-82.9260,95.56,1111122 
COMPS,ioos:station:USF.COMPS:C10:1,2015-04-03T11:35:00Z,27.1690,-82.9260,95.25,1111122 
COMPS,ioos:station:USF.COMPS:C10:1,2015-04-03T12:05:00Z,27.1690,-82.9260,94.32,1111122 
COMPS,ioos:station:USF.COMPS:C10:1,2015-04-03T12:35:00Z,27.1690,-82.9260,92.39,1111122 
COMPS,ioos:station:USF.COMPS:C10:1,2015-04-03T13:05:00Z,27.1690,-82.9260,91.39,1111122 
COMPS,ioos:station:USF.COMPS:C10:1,2015-04-03T13:35:00Z,27.1690,-82.9260,91.99,1111122 
COMPS,ioos:station:USF.COMPS:C10:1,2015-04-03T14:05:00Z,27.1690,-82.9260,91.66,1111122 
COMPS,ioos:station:USF.COMPS:C10:1,2015-04-03T14:35:00Z,27.1690,-82.9260,91.12,1111122 
COMPS,ioos:station:USF.COMPS:C10:1,2015-04-03T15:05:00Z,27.1690,-82.9260,90.27,1111122 
COMPS,ioos:station:USF.COMPS:C10:1,2015-04-03T15:35:00Z,27.1690,-82.9260,87.74,1111122 
COMPS,ioos:station:USF.COMPS:C10:1,2015-04-03T16:05:00Z,27.1690,-82.9260,85.5,1111122 
COMPS,ioos:station:USF.COMPS:C10:1,2015-04-03T16:35:00Z,27.1690,-82.9260,84.97,1111122 
COMPS,ioos:station:USF.COMPS:C10:1,2015-04-03T17:05:00Z,27.1690,-82.9260,83.7,1111122 
COMPS,ioos:station:USF.COMPS:C10:1,2015-04-03T17:35:00Z,27.1690,-82.9260,83.58,1111122 
COMPS,ioos:station:USF.COMPS:C10:1,2015-04-03T18:05:00Z,27.1690,-82.9260,83.68,1111122 
COMPS,ioos:station:USF.COMPS:C10:1,2015-04-03T18:35:00Z,27.1690,-82.9260,82.48,1111122 
COMPS,ioos:station:USF.COMPS:C10:1,2015-04-03T19:05:00Z,27.1690,-82.9260,80.69,1111122 
COMPS,ioos:station:USF.COMPS:C10:1,2015-04-03T19:35:00Z,27.1690,-82.9260,77.0,1111122 
COMPS,ioos:station:USF.COMPS:C10:1,2015-04-03T20:05:00Z,27.1690,-82.9260,74.82,1111122 
COMPS,ioos:station:USF.COMPS:C10:1,2015-04-03T20:35:00Z,27.1690,-82.9260,73.59,1111122 
COMPS,ioos:station:USF.COMPS:C10:1,2015-04-03T21:05:00Z,27.1690,-82.9260,72.41,1111122 
COMPS,ioos:station:USF.COMPS:C10:1,2015-04-03T21:35:00Z,27.1690,-82.9260,73.02,1111122 
COMPS,ioos:station:USF.COMPS:C10:1,2015-04-03T22:05:00Z,27.1690,-82.9260,73.12,1111122 
COMPS,ioos:station:USF.COMPS:C10:1,2015-04-03T22:35:00Z,27.1690,-82.9260,75.49,1111122 
COMPS,ioos:station:USF.COMPS:C10:1,2015-04-03T23:05:00Z,27.1690,-82.9260,78.95,1111122 
COMPS,ioos:station:USF.COMPS:C10:1,2015-04-03T23:35:00Z,27.1690,-82.9260,82.3,1111122 
COMPS,ioos:station:USF.COMPS:C10:1,2015-04-04T00:05:00Z,27.1690,-82.9260,84.67,1111122 
COMPS,ioos:station:USF.COMPS:C10:1,2015-04-04T00:35:00Z,27.1690,-82.9260,87.29,1111122 
COMPS,ioos:station:USF.COMPS:C10:1,2015-04-04T01:05:00Z,27.1690,-82.9260,87.74,1111122 
COMPS,ioos:station:USF.COMPS:C10:1,2015-04-04T01:35:00Z,27.1690,-82.9260,88.49,1111122 
COMPS,ioos:station:USF.COMPS:C10:1,2015-04-04T02:05:00Z,27.1690,-82.9260,89.01,1111122 
COMPS,ioos:station:USF.COMPS:C10:1,2015-04-04T02:35:00Z,27.1690,-82.9260,90.37,1111122 
COMPS,ioos:station:USF.COMPS:C10:1,2015-04-04T04:05:00Z,27.1690,-82.9260,91.49,1111122 
COMPS,ioos:station:USF.COMPS:C10:1,2015-04-04T04:35:00Z,27.1690,-82.9260,92.01,1111122 
COMPS,ioos:station:USF.COMPS:C10:1,2015-04-04T05:05:00Z,27.1690,-82.9260,91.47,1111122 
COMPS,ioos:station:USF.COMPS:C10:1,2015-04-04T05:35:00Z,27.1690,-82.9260,90.27,1111122 
COMPS,ioos:station:USF.COMPS:C10:1,2015-04-04T06:05:00Z,27.1690,-82.9260,90.54,1111122 
COMPS,ioos:station:USF.COMPS:C10:1,2015-04-04T06:35:00Z,27.1690,-82.9260,91.61,1111122 
COMPS,ioos:station:USF.COMPS:C10:1,2015-04-04T07:05:00Z,27.1690,-82.9260,90.29,1111122 
COMPS,ioos:station:USF.COMPS:C10:1,2015-04-04T07:35:00Z,27.1690,-82.9260,90.3,1111122 
COMPS,ioos:station:USF.COMPS:C10:1,2015-04-04T08:05:00Z,27.1690,-82.9260,91.1,1111122 
COMPS,ioos:station:USF.COMPS:C10:1,2015-04-04T08:35:00Z,27.1690,-82.9260,91.94,1111122 
COMPS,ioos:station:USF.COMPS:C10:1,2015-04-04T09:05:00Z,27.1690,-82.9260,92.51,1111122 
COMPS,ioos:station:USF.COMPS:C10:1,2015-04-04T09:35:00Z,27.1690,-82.9260,92.76,1111122 
COMPS,ioos:station:USF.COMPS:C10:1,2015-04-04T10:05:00Z,27.1690,-82.9260,91.56,1111122 
COMPS,ioos:station:USF.COMPS:C10:1,2015-04-04T10:35:00Z,27.1690,-82.9260,90.78,1111122 
COMPS,ioos:station:USF.COMPS:C10:1,2015-04-04T11:05:00Z,27.1690,-82.9260,89.02,1111122 
COMPS,ioos:station:USF.COMPS:C10:1,2015-04-04T11:35:00Z,27.1690,-82.9260,89.45,1111122 
COMPS,ioos:station:USF.COMPS:C10:1,2015-04-04T12:05:00Z,27.1690,-82.9260,88.68,1111122 
COMPS,ioos:station:USF.COMPS:C10:1,2015-04-04T12:35:00Z,27.1690,-82.9260,87.3,1111122 
COMPS,ioos:station:USF.COMPS:C10:1,2015-04-04T13:05:00Z,27.1690,-82.9260,86.17,1111122 
COMPS,ioos:station:USF.COMPS:C10:1,2015-04-04T13:35:00Z,27.1690,-82.9260,86.0,1111122 
COMPS,ioos:station:USF.COMPS:C10:1,2015-04-04T14:05:00Z,27.1690,-82.9260,83.81,1111122 
COMPS,ioos:station:USF.COMPS:C10:1,2015-04-04T14:35:00Z,27.1690,-82.9260,83.17,1111122 
COMPS,ioos:station:USF.COMPS:C10:1,2015-04-04T15:05:00Z,27.1690,-82.9260,82.62,1111122 
COMPS,ioos:station:USF.COMPS:C10:1,2015-04-04T15:35:00Z,27.1690,-82.9260,80.55,1111122 
COMPS,ioos:station:USF.COMPS:C10:1,2015-04-04T16:05:00Z,27.1690,-82.9260,78.82,1111122 
COMPS,ioos:station:USF.COMPS:C10:1,2015-04-04T16:35:00Z,27.1690,-82.9260,79.68,1111122 
COMPS,ioos:station:USF.COMPS:C10:1,2015-04-04T17:05:00Z,27.1690,-82.9260,80.36,1111122 
COMPS,ioos:station:USF.COMPS:C10:1,2015-04-04T17:35:00Z,27.1690,-82.9260,79.49,1111122 
COMPS,ioos:station:USF.COMPS:C10:1,2015-04-04T18:05:00Z,27.1690,-82.9260,79.44,1111122 
COMPS,ioos:station:USF.COMPS:C10:1,2015-04-04T18:35:00Z,27.1690,-82.9260,78.89,1111122 
COMPS,ioos:station:USF.COMPS:C10:1,2015-04-04T19:05:00Z,27.1690,-82.9260,76.62,1111122 
COMPS,ioos:station:USF.COMPS:C10:1,2015-04-04T19:35:00Z,27.1690,-82.9260,75.05,1111122 
COMPS,ioos:station:USF.COMPS:C10:1,2015-04-04T20:05:00Z,27.1690,-82.9260,72.11,1111122 
COMPS,ioos:station:USF.COMPS:C10:1,2015-04-04T20:35:00Z,27.1690,-82.9260,69.67,1111122 
COMPS,ioos:station:USF.COMPS:C10:1,2015-04-04T21:05:00Z,27.1690,-82.9260,71.03,1111122 
COMPS,ioos:station:USF.COMPS:C10:1,2015-04-04T21:35:00Z,27.1690,-82.9260,71.8,1111122 
COMPS,ioos:station:USF.COMPS:C10:1,2015-04-04T22:05:00Z,27.1690,-82.9260,71.84,1111122 
COMPS,ioos:station:USF.COMPS:C10:1,2015-04-04T22:35:00Z,27.1690,-82.9260,71.83,1111122 
COMPS,ioos:station:USF.COMPS:C10:1,2015-04-04T23:05:00Z,27.1690,-82.9260,71.99,1111122 
COMPS,ioos:station:USF.COMPS:C10:1,2015-04-04T23:35:00Z,27.1690,-82.9260,72.35,1111122 
COMPS,ioos:station:USF.COMPS:C10:1,2015-04-05T00:05:00Z,27.1690,-82.9260,73.35,1111122 
COMPS,ioos:station:USF.COMPS:C10:1,2015-04-05T00:35:00Z,27.1690,-82.9260,76.68,1111122 
COMPS,ioos:station:USF.COMPS:C10:1,2015-04-05T01:05:00Z,27.1690,-82.9260,78.55,1111122 
COMPS,ioos:station:USF.COMPS:C10:1,2015-04-05T01:35:00Z,27.1690,-82.9260,81.31,1111122 
COMPS,ioos:station:USF.COMPS:C10:1,2015-04-05T02:05:00Z,27.1690,-82.9260,82.23,1111122 
COMPS,ioos:station:USF.COMPS:C10:1,2015-04-05T02:35:00Z,27.1690,-82.9260,83.18,1111122 
COMPS,ioos:station:USF.COMPS:C10:1,2015-04-05T03:05:00Z,27.1690,-82.9260,85.23,1111122 
COMPS,ioos:station:USF.COMPS:C10:1,2015-04-05T03:35:00Z,27.1690,-82.9260,83.92,1111122 
COMPS,ioos:station:USF.COMPS:C10:1,2015-04-05T04:05:00Z,27.1690,-82.9260,85.45,1111122 
COMPS,ioos:station:USF.COMPS:C10:1,2015-04-05T04:35:00Z,27.1690,-82.9260,86.78,1111122 
COMPS,ioos:station:USF.COMPS:C10:1,2015-04-05T05:05:00Z,27.1690,-82.9260,87.27,1111122 
COMPS,ioos:station:USF.COMPS:C10:1,2015-04-05T05:35:00Z,27.1690,-82.9260,86.8,1111122 
COMPS,ioos:station:USF.COMPS:C10:1,2015-04-05T06:05:00Z,27.1690,-82.9260,87.27,1111122 
COMPS,ioos:station:USF.COMPS:C10:1,2015-04-05T06:35:00Z,27.1690,-82.9260,87.57,1111122 
COMPS,ioos:station:USF.COMPS:C10:1,2015-04-05T07:05:00Z,27.1690,-82.9260,87.73,1111122 
COMPS,ioos:station:USF.COMPS:C10:1,2015-04-05T07:35:00Z,27.1690,-82.9260,87.19,1111122 
COMPS,ioos:station:USF.COMPS:C10:1,2015-04-05T08:05:00Z,27.1690,-82.9260,87.95,1111122 
COMPS,ioos:station:USF.COMPS:C10:1,2015-04-05T08:35:00Z,27.1690,-82.9260,89.16,1111122 
COMPS,ioos:station:USF.COMPS:C10:1,2015-04-05T09:05:00Z,27.1690,-82.9260,90.18,1111122 
COMPS,ioos:station:USF.COMPS:C10:1,2015-04-05T09:35:00Z,27.1690,-82.9260,90.17,1111122 
COMPS,ioos:station:USF.COMPS:C10:1,2015-04-05T10:05:00Z,27.1690,-82.9260,90.28,1111122 
COMPS,ioos:station:USF.COMPS:C10:1,2015-04-05T10:35:00Z,27.1690,-82.9260,90.53,1111122 
COMPS,ioos:station:USF.COMPS:C10:1,2015-04-05T11:05:00Z,27.1690,-82.9260,89.63,1111122 
COMPS,ioos:station:USF.COMPS:C10:1,2015-04-05T11:35:00Z,27.1690,-82.9260,91.22,1111122 
COMPS,ioos:station:USF.COMPS:C10:1,2015-04-05T12:05:00Z,27.1690,-82.9260,89.48,1111122 
COMPS,ioos:station:USF.COMPS:C10:1,2015-04-05T12:35:00Z,27.1690,-82.9260,88.54,1111122 
COMPS,ioos:station:USF.COMPS:C10:1,2015-04-05T13:05:00Z,27.1690,-82.9260,88.84,1111122 
COMPS,ioos:station:USF.COMPS:C10:1,2015-04-05T13:35:00Z,27.1690,-82.9260,88.09,1111122 
COMPS,ioos:station:USF.COMPS:C10:1,2015-04-05T14:05:00Z,27.1690,-82.9260,85.82,1111122 
COMPS,ioos:station:USF.COMPS:C10:1,2015-04-05T14:35:00Z,27.1690,-82.9260,84.65,1111122 
COMPS,ioos:station:USF.COMPS:C10:1,2015-04-05T15:05:00Z,27.1690,-82.9260,83.74,1111122 
COMPS,ioos:station:USF.COMPS:C10:1,2015-04-05T15:35:00Z,27.1690,-82.9260,84.2,1111122 
COMPS,ioos:station:USF.COMPS:C10:1,2015-04-05T16:05:00Z,27.1690,-82.9260,85.26,1111122 
COMPS,ioos:station:USF.COMPS:C10:1,2015-04-05T16:35:00Z,27.1690,-82.9260,84.59,1111122 
COMPS,ioos:station:USF.COMPS:C10:1,2015-04-05T17:05:00Z,27.1690,-82.9260,84.26,1111122 
COMPS,ioos:station:USF.COMPS:C10:1,2015-04-05T17:35:00Z,27.1690,-82.9260,80.93,1111122 
COMPS,ioos:station:USF.COMPS:C10:1,2015-04-05T18:05:00Z,27.1690,-82.9260,78.83,1111122 
COMPS,ioos:station:USF.COMPS:C10:1,2015-04-05T18:35:00Z,27.1690,-82.9260,78.9,1111122 
COMPS,ioos:station:USF.COMPS:C10:1,2015-04-05T19:05:00Z,27.1690,-82.9260,78.24,1111122 
COMPS,ioos:station:USF.COMPS:C10:1,2015-04-05T19:35:00Z,27.1690,-82.9260,79.89,1111122 
COMPS,ioos:station:USF.COMPS:C10:1,2015-04-05T20:05:00Z,27.1690,-82.9260,80.99,1111122 
COMPS,ioos:station:USF.COMPS:C10:1,2015-04-05T20:35:00Z,27.1690,-82.9260,81.0,1111122 
COMPS,ioos:station:USF.COMPS:C10:1,2015-04-05T21:05:00Z,27.1690,-82.9260,80.06,1111122 
COMPS,ioos:station:USF.COMPS:C10:1,2015-04-05T21:35:00Z,27.1690,-82.9260,81.13,1111122 
COMPS,ioos:station:USF.COMPS:C10:1,2015-04-05T22:05:00Z,27.1690,-82.9260,82.2,1111122 
COMPS,ioos:station:USF.COMPS:C10:1,2015-04-05T22:35:00Z,27.1690,-82.9260,82.6,1111122 
COMPS,ioos:station:USF.COMPS:C10:1,2015-04-05T23:05:00Z,27.1690,-82.9260,84.7,1111122 
COMPS,ioos:station:USF.COMPS:C10:1,2015-04-05T23:35:00Z,27.1690,-82.9260,86.98,1111122 
COMPS,ioos:station:USF.COMPS:C10:1,2015-04-06T00:05:00Z,27.1690,-82.9260,88.7,1111122 
COMPS,ioos:station:USF.COMPS:C10:1,2015-04-06T00:35:00Z,27.1690,-82.9260,90.48,1111122 
COMPS,ioos:station:USF.COMPS:C10:1,2015-04-06T01:05:00Z,27.1690,-82.9260,91.34,1111122 
COMPS,ioos:station:USF.COMPS:C10:1,2015-04-06T01:35:00Z,27.1690,-82.9260,91.85,1111122 
COMPS,ioos:station:USF.COMPS:C10:1,2015-04-06T02:05:00Z,27.1690,-82.9260,90.77,1111122 
COMPS,ioos:station:USF.COMPS:C10:1,2015-04-06T02:35:00Z,27.1690,-82.9260,89.42,1111122 
COMPS,ioos:station:USF.COMPS:C10:1,2015-04-06T03:05:00Z,27.1690,-82.9260,89.74,1111122 
COMPS,ioos:station:USF.COMPS:C10:1,2015-04-06T03:35:00Z,27.1690,-82.9260,86.11,1111122 
COMPS,ioos:station:USF.COMPS:C10:1,2015-04-06T04:05:00Z,27.1690,-82.9260,85.62,1111122 
COMPS,ioos:station:USF.COMPS:C10:1,2015-04-06T04:35:00Z,27.1690,-82.9260,85.6,1111122 
COMPS,ioos:station:USF.COMPS:C10:1,2015-04-06T05:05:00Z,27.1690,-82.9260,87.21,1111122 
COMPS,ioos:station:USF.COMPS:C10:1,2015-04-06T05:35:00Z,27.1690,-82.9260,89.55,1111122 
COMPS,ioos:station:USF.COMPS:C10:1,2015-04-06T06:05:00Z,27.1690,-82.9260,89.89,1111122 
COMPS,ioos:station:USF.COMPS:C10:1,2015-04-06T06:35:00Z,27.1690,-82.9260,88.5,1111122 
COMPS,ioos:station:USF.COMPS:C10:1,2015-04-06T07:05:00Z,27.1690,-82.9260,87.21,1111122 
COMPS,ioos:station:USF.COMPS:C10:1,2015-04-06T07:35:00Z,27.1690,-82.9260,88.73,1111122 
COMPS,ioos:station:USF.COMPS:C10:1,2015-04-06T08:05:00Z,27.1690,-82.9260,89.17,1111122 
COMPS,ioos:station:USF.COMPS:C10:1,2015-04-06T08:35:00Z,27.1690,-82.9260,89.54,1111122 
COMPS,ioos:station:USF.COMPS:C10:1,2015-04-06T09:05:00Z,27.1690,-82.9260,89.87,1111122 
COMPS,ioos:station:USF.COMPS:C10:1,2015-04-06T09:35:00Z,27.1690,-82.9260,90.63,1111122 
COMPS,ioos:station:USF.COMPS:C10:1,2015-04-06T10:05:00Z,27.1690,-82.9260,91.37,1111122 
COMPS,ioos:station:USF.COMPS:C10:1,2015-04-06T10:35:00Z,27.1690,-82.9260,91.69,1111122 
COMPS,ioos:station:USF.COMPS:C10:1,2015-04-06T11:05:00Z,27.1690,-82.9260,91.71,1111122 
COMPS,ioos:station:USF.COMPS:C10:1,2015-04-06T11:35:00Z,27.1690,-82.9260,91.7,1111122 
COMPS,ioos:station:USF.COMPS:C10:1,2015-04-06T12:05:00Z,27.1690,-82.9260,91.45,1111122 
COMPS,ioos:station:USF.COMPS:C10:1,2015-04-06T12:35:00Z,27.1690,-82.9260,91.01,1111122 
COMPS,ioos:station:USF.COMPS:C10:1,2015-04-06T13:05:00Z,27.1690,-82.9260,90.29,1111122 
COMPS,ioos:station:USF.COMPS:C10:1,2015-04-06T13:35:00Z,27.1690,-82.9260,89.54,1111122 
COMPS,ioos:station:USF.COMPS:C10:1,2015-04-06T14:05:00Z,27.1690,-82.9260,88.48,1111122 
COMPS,ioos:station:USF.COMPS:C10:1,2015-04-06T14:35:00Z,27.1690,-82.9260,87.83,1111122 
COMPS,ioos:station:USF.COMPS:C10:1,2015-04-06T15:05:00Z,27.1690,-82.9260,87.55,1111122 
COMPS,ioos:station:USF.COMPS:C10:1,2015-04-06T15:35:00Z,27.1690,-82.9260,88.35,1111122 
COMPS,ioos:station:USF.COMPS:C10:1,2015-04-06T16:05:00Z,27.1690,-82.9260,88.04,1111122 
COMPS,ioos:station:USF.COMPS:C10:1,2015-04-06T16:35:00Z,27.1690,-82.9260,87.74,1111122 
COMPS,ioos:station:USF.COMPS:C10:1,2015-04-06T17:05:00Z,27.1690,-82.9260,86.75,1111122 
COMPS,ioos:station:USF.COMPS:C10:1,2015-04-06T17:35:00Z,27.1690,-82.9260,86.25,1111122 
COMPS,ioos:station:USF.COMPS:C10:1,2015-04-06T18:05:00Z,27.1690,-82.9260,84.5,1111122 
COMPS,ioos:station:USF.COMPS:C10:1,2015-04-06T18:35:00Z,27.1690,-82.9260,83.75,1111122 
COMPS,ioos:station:USF.COMPS:C10:1,2015-04-06T19:05:00Z,27.1690,-82.9260,82.97,1111122 
COMPS,ioos:station:USF.COMPS:C10:1,2015-04-06T19:35:00Z,27.1690,-82.9260,81.99,1111122 
COMPS,ioos:station:USF.COMPS:C10:1,2015-04-06T20:05:00Z,27.1690,-82.9260,82.55,1111122 
COMPS,ioos:station:USF.COMPS:C10:1,2015-04-06T20:35:00Z,27.1690,-82.9260,82.43,1111122 
COMPS,ioos:station:USF.COMPS:C10:1,2015-04-06T21:05:00Z,27.1690,-82.9260,82.06,1111122 
COMPS,ioos:station:USF.COMPS:C10:1,2015-04-06T21:35:00Z,27.1690,-82.9260,82.88,1111122 